Location: Newark
(42.8481°N, 0.4872°E)
Time: 09:00:27
(UTC+00:00)

Vanguard 2 - Pass Details

Date: 05 November 2020
Orbit: 554 x 2937 km, 32.9° (Epoch: 26 November)

Event Time Altitude Azimuth Distance (km) Brightness Sun altitude
Rises 22:27:56 0° 274° (W) 5,653 12.2 -58.9°
Reaches altitude 10° 22:31:40 10° 267° (W) 4,935 11.7 -59.3°
Enters shadow 22:35:31 21° 255° (WSW) 4,337 11.3 -59.7°
Maximum altitude 22:44:46 37° 207° (SSW) 3,818 - -60.6°
Drops below altitude 10° 23:00:04 10° 149° (SSE) 5,707 - -61.8°
Sets 23:04:52 0° 141° (SE) 6,599 - -62.1°
